Time,TemperatureF,DewpointF,PressureIn,WindDirection,WindDirectionDegrees,WindSpeedMPH,WindSpeedGustMPH,Humidity,HourlyPrecipIn,Conditions,Clouds,dailyrainin,SoftwareType,DateUTC
2013-05-06 00:03:00,55.0,-99.9,-100.00,SW,235,6.0,6.0,-999,0.00,,,0.00,,2013-05-06 05:03:00,
2013-05-06 00:12:00,55.0,-99.9,-100.00,SW,235,6.0,6.0,-999,0.00,,,0.00,,2013-05-06 05:12:00,
2013-05-06 00:22:00,55.0,-99.9,-100.00,SW,235,6.0,6.0,-999,0.00,,,0.00,,2013-05-06 05:22:00,
2013-05-06 00:32:00,53.0,-99.9,-100.00,SW,234,5.0,6.0,-999,0.00,,,0.00,,2013-05-06 05:32:00,
2013-05-06 00:43:00,53.0,-99.9,-100.00,SW,234,5.0,6.0,-999,0.00,,,0.00,,2013-05-06 05:43:00,
2013-05-06 00:52:00,53.0,-99.9,-100.00,SW,234,5.0,6.0,-999,0.00,,,0.00,,2013-05-06 05:52:00,
2013-05-06 01:00:00,51.0,-99.9,-100.00,WSW,239,1.0,3.0,-999,0.00,,,0.00,,2013-05-06 06:00:00,
2013-05-06 01:02:00,52.0,-99.9,-100.00,SW,236,3.0,5.0,-999,0.00,,,0.00,,2013-05-06 06:02:00,
2013-05-06 01:12:00,52.0,-99.9,-100.00,SW,236,3.0,5.0,-999,0.00,,,0.00,,2013-05-06 06:12:00,
2013-05-06 01:22:00,52.0,-99.9,-100.00,SW,236,3.0,5.0,-999,0.00,,,0.00,,2013-05-06 06:22:00,
2013-05-06 01:32:00,51.0,-99.9,-100.00,WSW,239,1.0,3.0,-999,0.00,,,0.00,,2013-05-06 06:32:00,
2013-05-06 01:42:00,51.0,-99.9,-100.00,WSW,239,1.0,3.0,-999,0.00,,,0.00,,2013-05-06 06:42:00,
2013-05-06 01:52:00,51.0,-99.9,-100.00,WSW,239,1.0,3.0,-999,0.00,,,0.00,,2013-05-06 06:52:00,
2013-05-06 02:32:00,50.0,-99.9,-100.00,SW,233,5.0,6.0,-999,0.00,,,0.00,,2013-05-06 07:32:00,
2013-05-06 02:42:00,50.0,-99.9,-100.00,SW,233,5.0,6.0,-999,0.00,,,0.00,,2013-05-06 07:42:00,
2013-05-06 02:52:00,50.0,-99.9,-100.00,SW,233,5.0,6.0,-999,0.00,,,0.00,,2013-05-06 07:52:00,
2013-05-06 03:02:00,49.0,-99.9,-100.00,SW,231,3.0,4.0,-999,0.00,,,0.00,,2013-05-06 08:02:00,
2013-05-06 03:12:00,49.0,-99.9,-100.00,SW,231,3.0,4.0,-999,0.00,,,0.00,,2013-05-06 08:12:00,
2013-05-06 03:22:00,49.0,-99.9,-100.00,SW,231,3.0,4.0,-999,0.00,,,0.00,,2013-05-06 08:22:00,
2013-05-06 03:32:00,49.0,-99.9,-100.00,WSW,238,1.0,2.0,-999,0.00,,,0.00,,2013-05-06 08:32:00,
2013-05-06 03:42:00,49.0,-99.9,-100.00,WSW,238,1.0,2.0,-999,0.00,,,0.00,,2013-05-06 08:42:00,
2013-05-06 03:52:00,49.0,-99.9,-100.00,WSW,238,1.0,2.0,-999,0.00,,,0.00,,2013-05-06 08:52:00,
2013-05-06 04:02:00,47.0,-99.9,-100.00,SW,236,4.0,5.0,-999,0.00,,,0.00,,2013-05-06 09:02:00,
2013-05-06 04:11:00,47.0,-99.9,-100.00,SW,236,4.0,5.0,-999,0.00,,,0.00,,2013-05-06 09:11:00,
2013-05-06 04:22:00,47.0,-99.9,-100.00,SW,236,4.0,5.0,-999,0.00,,,0.00,,2013-05-06 09:22:00,
2013-05-06 04:33:00,47.0,-99.9,-100.00,WSW,237,3.0,4.0,-999,0.00,,,0.00,,2013-05-06 09:33:00,
2013-05-06 04:43:00,47.0,-99.9,-100.00,WSW,237,3.0,4.0,-999,0.00,,,0.00,,2013-05-06 09:43:00,
2013-05-06 04:53:00,47.0,-99.9,-100.00,WSW,237,3.0,4.0,-999,0.00,,,0.00,,2013-05-06 09:53:00,
2013-05-06 05:03:00,47.0,-99.9,-100.00,SW,231,3.0,5.0,-999,0.00,,,0.00,,2013-05-06 10:03:00,
2013-05-06 05:12:00,47.0,-99.9,-100.00,SW,231,3.0,5.0,-999,0.00,,,0.00,,2013-05-06 10:12:00,
2013-05-06 05:22:00,47.0,-99.9,-100.00,SW,231,3.0,5.0,-999,0.00,,,0.00,,2013-05-06 10:22:00,
2013-05-06 05:33:00,46.0,-99.9,-100.00,SW,234,3.0,4.0,-999,0.00,,,0.00,,2013-05-06 10:33:00,
2013-05-06 05:42:00,46.0,-99.9,-100.00,SW,234,3.0,4.0,-999,0.00,,,0.00,,2013-05-06 10:42:00,
2013-05-06 05:52:00,46.0,-99.9,-100.00,SW,234,3.0,4.0,-999,0.00,,,0.00,,2013-05-06 10:52:00,
2013-05-06 06:02:00,46.0,-99.9,-100.00,SW,236,2.0,3.0,-999,0.00,,,0.00,,2013-05-06 11:02:00,
2013-05-06 06:12:00,46.0,-99.9,-100.00,SW,236,2.0,3.0,-999,0.00,,,0.00,,2013-05-06 11:12:00,
2013-05-06 06:22:00,46.0,-99.9,-100.00,SW,236,2.0,3.0,-999,0.00,,,0.00,,2013-05-06 11:22:00,
2013-05-06 06:32:00,46.0,-99.9,-100.00,SW,235,2.0,3.0,-999,0.00,,,0.00,,2013-05-06 11:32:00,
2013-05-06 06:42:00,46.0,-99.9,-100.00,SW,235,2.0,3.0,-999,0.00,,,0.00,,2013-05-06 11:42:00,
2013-05-06 06:52:00,46.0,-99.9,-100.00,SW,235,2.0,3.0,-999,0.00,,,0.00,,2013-05-06 11:52:00,
2013-05-06 07:02:00,46.0,-99.9,-100.00,SW,235,3.0,4.0,-999,0.00,,,0.00,,2013-05-06 12:02:00,
2013-05-06 07:12:00,46.0,-99.9,-100.00,SW,235,3.0,4.0,-999,0.00,,,0.00,,2013-05-06 12:12:00,
2013-05-06 07:22:00,46.0,-99.9,-100.00,SW,235,3.0,4.0,-999,0.00,,,0.00,,2013-05-06 12:22:00,
2013-05-06 07:30:00,53.0,-99.9,-100.00,NNW,344,7.0,8.0,-999,0.00,,,0.00,,2013-05-06 12:30:00,
2013-05-06 07:32:00,48.0,-99.9,-100.00,SW,225,2.0,3.0,-999,0.00,,,0.00,,2013-05-06 12:32:00,
2013-05-06 07:42:00,48.0,-99.9,-100.00,SW,225,2.0,3.0,-999,0.00,,,0.00,,2013-05-06 12:42:00,
2013-05-06 07:52:00,48.0,-99.9,-100.00,SW,225,2.0,3.0,-999,0.00,,,0.00,,2013-05-06 12:52:00,
2013-05-06 08:02:00,53.0,-99.9,-100.00,NNW,344,7.0,8.0,-999,0.00,,,0.00,,2013-05-06 13:02:00,
2013-05-06 08:11:00,53.0,-99.9,-100.00,NNW,344,7.0,8.0,-999,0.00,,,0.00,,2013-05-06 13:11:00,
2013-05-06 08:22:00,53.0,-99.9,-100.00,NNW,344,7.0,8.0,-999,0.00,,,0.00,,2013-05-06 13:22:00,
2013-05-06 09:02:00,56.0,-99.9,-100.00,NNW,342,5.0,6.0,-999,0.00,,,0.00,,2013-05-06 14:02:00,
2013-05-06 09:11:00,56.0,-99.9,-100.00,NNW,342,5.0,6.0,-999,0.00,,,0.00,,2013-05-06 14:11:00,
2013-05-06 09:22:00,56.0,-99.9,-100.00,NNW,342,5.0,6.0,-999,0.00,,,0.00,,2013-05-06 14:22:00,
2013-05-06 09:32:00,60.0,-99.9,-100.00,NNW,347,5.0,7.0,-999,0.00,,,0.00,,2013-05-06 14:32:00,
2013-05-06 09:42:00,60.0,-99.9,-100.00,NNW,347,5.0,7.0,-999,0.00,,,0.00,,2013-05-06 14:42:00,
2013-05-06 09:52:00,60.0,-99.9,-100.00,NNW,347,5.0,7.0,-999,0.00,,,0.00,,2013-05-06 14:52:00,
2013-05-06 10:01:00,60.0,-99.9,-100.00,NNW,340,6.0,7.0,-999,0.00,,,0.00,,2013-05-06 15:01:00,
2013-05-06 10:11:00,60.0,-99.9,-100.00,NNW,340,6.0,7.0,-999,0.00,,,0.00,,2013-05-06 15:11:00,
2013-05-06 10:22:00,60.0,-99.9,-100.00,NNW,340,6.0,7.0,-999,0.00,,,0.00,,2013-05-06 15:22:00,
2013-05-06 10:33:00,64.0,-99.9,-100.00,NNW,339,6.0,7.0,-999,0.00,,,0.00,,2013-05-06 15:33:00,
2013-05-06 10:43:00,64.0,-99.9,-100.00,NNW,339,6.0,7.0,-999,0.00,,,0.00,,2013-05-06 15:43:00,
2013-05-06 10:53:00,64.0,-99.9,-100.00,NNW,339,6.0,7.0,-999,0.00,,,0.00,,2013-05-06 15:53:00,
2013-05-06 11:03:00,65.0,-99.9,-100.00,NNW,339,6.0,7.0,-999,0.00,,,0.00,,2013-05-06 16:03:00,
2013-05-06 11:13:00,65.0,-99.9,-100.00,NNW,339,6.0,7.0,-999,0.00,,,0.00,,2013-05-06 16:13:00,
2013-05-06 11:23:00,65.0,-99.9,-100.00,NNW,339,6.0,7.0,-999,0.00,,,0.00,,2013-05-06 16:23:00,
2013-05-06 11:30:00,69.0,-99.9,-100.00,NNW,339,7.0,8.0,-999,0.00,,,0.00,,2013-05-06 16:30:00,
2013-05-06 11:33:00,70.0,-99.9,-100.00,NNW,341,5.0,6.0,-999,0.00,,,0.00,,2013-05-06 16:33:00,
2013-05-06 11:42:00,70.0,-99.9,-100.00,NNW,341,5.0,6.0,-999,0.00,,,0.00,,2013-05-06 16:42:00,
2013-05-06 11:52:00,70.0,-99.9,-100.00,NNW,341,5.0,6.0,-999,0.00,,,0.00,,2013-05-06 16:52:00,
2013-05-06 12:03:00,69.0,-99.9,-100.00,NNW,339,7.0,8.0,-999,0.00,,,0.00,,2013-05-06 17:03:00,
2013-05-06 12:12:00,69.0,-99.9,-100.00,NNW,339,7.0,8.0,-999,0.00,,,0.00,,2013-05-06 17:12:00,
2013-05-06 12:23:00,69.0,-99.9,-100.00,NNW,339,7.0,8.0,-999,0.00,,,0.00,,2013-05-06 17:23:00,
2013-05-06 12:30:00,70.0,-99.9,-100.00,NNW,345,5.0,7.0,-999,0.00,,,0.00,,2013-05-06 17:30:00,
2013-05-06 13:02:00,70.0,-99.9,-100.00,NNW,345,5.0,7.0,-999,0.00,,,0.00,,2013-05-06 18:02:00,
2013-05-06 13:12:00,70.0,-99.9,-100.00,NNW,345,5.0,7.0,-999,0.00,,,0.00,,2013-05-06 18:12:00,
2013-05-06 13:22:00,70.0,-99.9,-100.00,NNW,345,5.0,7.0,-999,0.00,,,0.00,,2013-05-06 18:22:00,
2013-05-06 14:01:00,75.0,-99.9,-100.00,NNW,340,5.0,6.0,-999,0.00,,,0.00,,2013-05-06 19:01:00,
2013-05-06 14:11:00,75.0,-99.9,-100.00,NNW,340,5.0,6.0,-999,0.00,,,0.00,,2013-05-06 19:11:00,
2013-05-06 14:22:00,75.0,-99.9,-100.00,NNW,340,5.0,6.0,-999,0.00,,,0.00,,2013-05-06 19:22:00,
2013-05-06 14:32:00,75.0,-99.9,-100.00,NNW,345,5.0,6.0,-999,0.00,,,0.00,,2013-05-06 19:32:00,
2013-05-06 14:42:00,75.0,-99.9,-100.00,NNW,345,5.0,6.0,-999,0.00,,,0.00,,2013-05-06 19:42:00,
2013-05-06 14:52:00,75.0,-99.9,-100.00,NNW,345,5.0,6.0,-999,0.00,,,0.00,,2013-05-06 19:52:00,
2013-05-06 15:02:00,76.0,-99.9,-100.00,North,356,4.0,5.0,-999,0.00,,,0.00,,2013-05-06 20:02:00,
2013-05-06 15:11:00,76.0,-99.9,-100.00,North,356,4.0,5.0,-999,0.00,,,0.00,,2013-05-06 20:11:00,
2013-05-06 15:22:00,76.0,-99.9,-100.00,North,356,4.0,5.0,-999,0.00,,,0.00,,2013-05-06 20:22:00,
2013-05-06 15:32:00,74.0,-99.9,-100.00,NNW,348,4.0,5.0,-999,0.00,,,0.00,,2013-05-06 20:32:00,
2013-05-06 15:42:00,74.0,-99.9,-100.00,NNW,348,4.0,5.0,-999,0.00,,,0.00,,2013-05-06 20:42:00,
2013-05-06 15:52:00,74.0,-99.9,-100.00,NNW,348,4.0,5.0,-999,0.00,,,0.00,,2013-05-06 20:52:00,
2013-05-06 16:01:00,71.0,-99.9,-100.00,NNE,19,5.0,6.0,-999,0.00,,,0.00,,2013-05-06 21:01:00,
2013-05-06 16:11:00,71.0,-99.9,-100.00,NNE,19,5.0,6.0,-999,0.00,,,0.00,,2013-05-06 21:11:00,
2013-05-06 16:22:00,71.0,-99.9,-100.00,NNE,19,5.0,6.0,-999,0.00,,,0.00,,2013-05-06 21:22:00,
2013-05-06 16:33:00,76.0,-99.9,-100.00,NNE,22,2.0,3.0,-999,0.00,,,0.00,,2013-05-06 21:33:00,
2013-05-06 16:43:00,76.0,-99.9,-100.00,NNE,22,2.0,3.0,-999,0.00,,,0.00,,2013-05-06 21:43:00,
2013-05-06 16:53:00,76.0,-99.9,-100.00,NNE,22,2.0,3.0,-999,0.00,,,0.00,,2013-05-06 21:53:00,
2013-05-06 17:03:00,73.0,-99.9,-100.00,NNE,17,2.0,3.0,-999,0.00,,,0.00,,2013-05-06 22:03:00,
2013-05-06 17:12:00,73.0,-99.9,-100.00,NNE,17,2.0,3.0,-999,0.00,,,0.00,,2013-05-06 22:12:00,
2013-05-06 17:22:00,73.0,-99.9,-100.00,NNE,17,2.0,3.0,-999,0.00,,,0.00,,2013-05-06 22:22:00,
2013-05-06 17:33:00,72.0,-99.9,-100.00,NNW,343,3.0,4.0,-999,0.00,,,0.00,,2013-05-06 22:33:00,
2013-05-06 17:45:00,72.0,-99.9,-100.00,NNW,343,3.0,4.0,-999,0.00,,,0.00,,2013-05-06 22:45:00,
2013-05-06 17:53:00,72.0,-99.9,-100.00,NNW,343,3.0,4.0,-999,0.00,,,0.00,,2013-05-06 22:53:00,
2013-05-06 18:03:00,73.0,-99.9,-100.00,NNW,343,3.0,4.0,-999,0.00,,,0.00,,2013-05-06 23:03:00,
2013-05-06 18:12:00,73.0,-99.9,-100.00,NNW,343,3.0,4.0,-999,0.00,,,0.00,,2013-05-06 23:12:00,
2013-05-06 18:22:00,73.0,-99.9,-100.00,NNW,343,3.0,4.0,-999,0.00,,,0.00,,2013-05-06 23:22:00,
2013-05-06 18:32:00,72.0,-99.9,-100.00,NNW,340,5.0,6.0,-999,0.00,,,0.00,,2013-05-06 23:32:00,
2013-05-06 18:42:00,72.0,-99.9,-100.00,NNW,340,5.0,6.0,-999,0.00,,,0.00,,2013-05-06 23:42:00,
2013-05-06 18:52:00,72.0,-99.9,-100.00,NNW,340,5.0,6.0,-999,0.00,,,0.00,,2013-05-06 23:52:00,
2013-05-06 19:01:00,72.0,-99.9,-100.00,North,354,0.0,1.0,-999,0.00,,,0.00,,2013-05-07 00:01:00,
2013-05-06 19:12:00,72.0,-99.9,-100.00,North,354,0.0,1.0,-999,0.00,,,0.00,,2013-05-07 00:12:00,
2013-05-06 19:22:00,72.0,-99.9,-100.00,North,354,0.0,1.0,-999,0.00,,,0.00,,2013-05-07 00:22:00,
2013-05-06 19:32:00,70.0,-99.9,-100.00,North,359,0.0,2.0,-999,0.00,,,0.00,,2013-05-07 00:32:00,
2013-05-06 19:42:00,70.0,-99.9,-100.00,North,359,0.0,2.0,-999,0.00,,,0.00,,2013-05-07 00:42:00,
2013-05-06 19:52:00,70.0,-99.9,-100.00,North,359,0.0,2.0,-999,0.00,,,0.00,,2013-05-07 00:52:00,
2013-05-06 20:01:00,67.0,-99.9,-100.00,NW,314,0.0,0.0,-999,0.00,,,0.00,,2013-05-07 01:01:00,
2013-05-06 20:11:00,67.0,-99.9,-100.00,NW,314,0.0,0.0,-999,0.00,,,0.00,,2013-05-07 01:11:00,
2013-05-06 20:22:00,67.0,-99.9,-100.00,NW,314,0.0,0.0,-999,0.00,,,0.00,,2013-05-07 01:22:00,
2013-05-06 20:32:00,67.0,-99.9,-100.00,SSE,158,1.0,2.0,-999,0.00,,,0.00,,2013-05-07 01:32:00,
2013-05-06 20:42:00,67.0,-99.9,-100.00,SSE,158,1.0,2.0,-999,0.00,,,0.00,,2013-05-07 01:42:00,
2013-05-06 20:53:00,67.0,-99.9,-100.00,SSE,158,1.0,2.0,-999,0.00,,,0.00,,2013-05-07 01:53:00,
2013-05-06 21:02:00,67.0,-99.9,-100.00,SSW,211,1.0,3.0,-999,0.00,,,0.00,,2013-05-07 02:02:00,
2013-05-06 21:11:00,67.0,-99.9,-100.00,SSW,211,1.0,3.0,-999,0.00,,,0.00,,2013-05-07 02:11:00,
2013-05-06 21:22:00,67.0,-99.9,-100.00,SSW,211,1.0,3.0,-999,0.00,,,0.00,,2013-05-07 02:22:00,
2013-05-06 21:32:00,59.0,-99.9,-100.00,NNW,336,1.0,2.0,-999,0.00,,,0.00,,2013-05-07 02:32:00,
2013-05-06 21:42:00,59.0,-99.9,-100.00,NNW,336,1.0,2.0,-999,0.00,,,0.00,,2013-05-07 02:42:00,
2013-05-06 21:52:00,59.0,-99.9,-100.00,NNW,336,1.0,2.0,-999,0.00,,,0.00,,2013-05-07 02:52:00,
2013-05-06 22:02:00,61.0,-99.9,-100.00,SW,235,1.0,2.0,-999,0.00,,,0.00,,2013-05-07 03:02:00,
2013-05-06 22:12:00,61.0,-99.9,-100.00,SW,235,1.0,2.0,-999,0.00,,,0.00,,2013-05-07 03:12:00,
2013-05-06 22:22:00,61.0,-99.9,-100.00,SW,235,1.0,2.0,-999,0.00,,,0.00,,2013-05-07 03:22:00,
2013-05-06 22:33:00,59.0,-99.9,-100.00,WSW,238,2.0,3.0,-999,0.00,,,0.00,,2013-05-07 03:33:00,
2013-05-06 22:43:00,59.0,-99.9,-100.00,WSW,238,2.0,3.0,-999,0.00,,,0.00,,2013-05-07 03:43:00,
2013-05-06 22:53:00,59.0,-99.9,-100.00,WSW,238,2.0,3.0,-999,0.00,,,0.00,,2013-05-07 03:53:00,
2013-05-06 23:03:00,58.0,-99.9,-100.00,SW,233,3.0,4.0,-999,0.00,,,0.00,,2013-05-07 04:03:00,
2013-05-06 23:12:00,58.0,-99.9,-100.00,SW,233,3.0,4.0,-999,0.00,,,0.00,,2013-05-07 04:12:00,
2013-05-06 23:23:00,58.0,-99.9,-100.00,SW,233,3.0,4.0,-999,0.00,,,0.00,,2013-05-07 04:23:00,
2013-05-06 23:30:00,56.0,-99.9,-100.00,SW,236,2.0,3.0,-999,0.00,,,0.00,,2013-05-07 04:30:00,
2013-05-06 23:33:00,57.0,-99.9,-100.00,WSW,251,1.0,3.0,-999,0.00,,,0.00,,2013-05-07 04:33:00,
2013-05-06 23:42:00,57.0,-99.9,-100.00,WSW,251,1.0,3.0,-999,0.00,,,0.00,,2013-05-07 04:42:00,
2013-05-06 23:53:00,57.0,-99.9,-100.00,WSW,251,1.0,3.0,-999,0.00,,,0.00,,2013-05-07 04:53:00,